Total_Precipitation_Accumulation
0.93 1.03 1.06 0.85 0.61 0.49 0.47 0.45 0.44 0.47 0.52 0.60 0.55 0.52 0.57 0.61 0.58 0.65 0.73 0.83 0.91 0.95 0.95 0.97 1.00 1.03 1.09 1.10 1.16 1.18 1.15 1.04 0.80 0.71 0.57 0.47 0.49 0.48 0.49 0.42 0.41 0.38 0.33
0.80 0.79 0.65 0.47 0.37 0.34 0.30 0.25 0.22 0.22 0.22 0.29 0.32 0.32 0.40 0.50 0.51 0.56 0.60 0.61 0.66 0.70 0.71 0.75 0.78 0.81 0.88 0.92 0.94 0.97 1.02 1.05 0.94 0.81 0.67 0.53 0.48 0.51 0.59 0.58 0.55 0.51 0.49
0.44 0.42 0.39 0.32 0.30 0.26 0.21 0.19 0.17 0.16 0.16 0.20 0.23 0.26 0.29 0.38 0.50 0.55 0.57 0.52 0.51 0.49 0.48 0.51 0.56 0.61 0.68 0.73 0.75 0.80 0.88 0.91 0.92 0.83 0.78 0.70 0.59 0.53 0.58 0.59 0.60 0.71 0.69
0.25 0.23 0.22 0.23 0.23 0.23 0.23 0.23 0.18 0.14 0.16 0.15 0.14 0.16 0.24 0.34 0.42 0.50 0.54 0.50 0.46 0.45 0.46 0.44 0.44 0.44 0.47 0.56 0.65 0.77 0.86 0.96 0.98 0.89 0.88 0.85 0.77 0.68 0.68 0.75 0.80 0.85 0.88
0.15 0.15 0.18 0.18 0.18 0.18 0.20 0.20 0.17 0.14 0.12 0.08 0.06 0.08 0.16 0.21 0.26 0.39 0.45 0.44 0.45 0.42 0.42 0.45 0.44 0.40 0.38 0.41 0.43 0.55 0.66 0.82 0.92 0.95 0.95 0.97 0.93 0.86 0.78 0.84 0.93 1.00 1.03
0.03 0.05 0.08 0.11 0.13 0.15 0.15 0.15 0.13 0.11 0.09 0.07 0.05 0.05 0.07 0.08 0.14 0.21 0.30 0.39 0.44 0.46 0.45 0.47 0.45 0.41 0.42 0.40 0.38 0.40 0.46 0.55 0.66 0.73 0.79 0.85 0.91 0.96 1.02 1.02 1.04 1.06 1.12
0.01 0.01 0.02 0.03 0.04 0.05 0.05 0.05 0.05 0.04 0.04 0.03 0.04 0.04 0.04 0.03 0.04 0.07 0.17 0.33 0.45 0.44 0.43 0.54 0.60 0.54 0.52 0.55 0.55 0.47 0.39 0.37 0.46 0.60 0.68 0.71 0.76 0.84 1.01 1.10 1.11 1.09 1.00
0.00 0.00 0.00 0.01 0.01 0.02 0.02 0.02 0.02 0.02 0.02 0.03 0.04 0.06 0.04 0.01 0.02 0.03 0.08 0.22 0.34 0.37 0.37 0.48 0.71 0.72 0.65 0.64 0.68 0.74 0.62 0.44 0.41 0.46 0.59 0.63 0.63 0.76 1.03 1.23 1.17 0.94 0.86
0.00 0.00 0.00 0.00 0.01 0.01 0.01 0.01 0.00 0.01 0.02 0.02 0.03 0.05 0.04 0.03 0.02 0.03 0.06 0.16 0.24 0.28 0.32 0.44 0.58 0.71 0.68 0.67 0.66 0.69 0.67 0.54 0.47 0.47 0.44 0.48 0.56 0.68 0.88 1.11 1.17 1.04 0.88
0.00 0.00 0.00 0.00 0.01 0.01 0.01 0.01 0.01 0.01 0.02 0.02 0.01 0.01 0.01 0.01 0.02 0.03 0.05 0.09 0.13 0.13 0.19 0.32 0.48 0.51 0.49 0.55 0.63 0.71 0.78 0.61 0.50 0.55 0.52 0.54 0.56 0.71 0.95 1.10 1.13 1.02 0.88
0.00 0.00 0.01 0.01 0.01 0.02 0.02 0.02 0.01 0.01 0.02 0.02 0.02 0.02 0.02 0.01 0.02 0.03 0.05 0.06 0.08 0.08 0.12 0.23 0.30 0.33 0.34 0.41 0.52 0.63 0.75 0.61 0.60 0.67 0.65 0.61 0.67 0.73 0.84 0.92 1.01 1.02 0.87
0.00 0.01 0.01 0.01 0.01 0.01 0.03 0.02 0.01 0.01 0.02 0.03 0.05 0.05 0.05 0.04 0.02 0.03 0.05 0.07 0.08 0.08 0.13 0.18 0.22 0.21 0.22 0.26 0.33 0.44 0.55 0.60 0.64 0.71 0.69 0.59 0.59 0.65 0.69 0.72 0.78 0.80 0.74
0.00 0.01 0.00 0.01 0.01 0.01 0.01 0.01 0.01 0.01 0.01 0.02 0.04 0.06 0.06 0.07 0.04 0.02 0.03 0.05 0.06 0.09 0.12 0.16 0.18 0.19 0.22 0.23 0.26 0.34 0.48 0.62 0.74 0.71 0.63 0.53 0.51 0.55 0.56 0.64 0.69 0.70 0.66
0.00 0.00 0.00 0.00 0.01 0.02 0.01 0.00 0.01 0.01 0.01 0.01 0.02 0.04 0.05 0.07 0.04 0.03 0.05 0.07 0.07 0.09 0.11 0.12 0.13 0.18 0.22 0.22 0.27 0.37 0.52 0.70 0.76 0.66 0.57 0.45 0.42 0.53 0.55 0.53 0.53 0.53 0.55
0.00 0.00 0.00 0.00 0.01 0.02 0.01 0.00 0.00 0.00 0.00 0.01 0.02 0.03 0.02 0.03 0.02 0.01 0.03 0.04 0.05 0.05 0.09 0.15 0.18 0.24 0.29 0.35 0.45 0.52 0.54 0.59 0.64 0.55 0.55 0.48 0.43 0.47 0.47 0.41 0.38 0.34 0.34
0.00 0.00 0.00 0.00 0.01 0.01 0.02 0.01 0.00 0.00 0.00 0.00 0.00 0.01 0.02 0.00 0.00 0.01 0.01 0.02 0.02 0.05 0.12 0.20 0.27 0.33 0.38 0.45 0.49 0.51 0.53 0.54 0.56 0.51 0.49 0.45 0.38 0.37 0.36 0.33 0.29 0.27 0.27
0.00 0.00 0.00 0.00 0.00 0.00 0.01 0.03 0.03 0.02 0.01 0.00 0.00 0.00 0.00 0.00 0.00 0.01 0.01 0.02 0.02 0.04 0.10 0.21 0.40 0.44 0.39 0.44 0.46 0.44 0.37 0.33 0.33 0.33 0.32 0.28 0.24 0.24 0.26 0.25 0.22 0.21 0.19
0.00 0.00 0.00 0.00 0.00 0.00 0.00 0.00 0.01 0.03 0.04 0.04 0.02 0.00 0.00 0.00 0.00 0.01 0.01 0.03 0.03 0.03 0.06 0.12 0.25 0.28 0.30 0.33 0.30 0.27 0.20 0.15 0.15 0.15 0.14 0.14 0.14 0.14 0.14 0.14 0.13 0.12 0.12
0.00 0.00 0.00 0.00 0.00 0.00 0.00 0.00 0.00 0.00 0.01 0.03 0.03 0.01 0.00 0.00 0.00 0.00 0.01 0.02 0.03 0.04 0.06 0.10 0.13 0.15 0.15 0.13 0.12 0.10 0.07 0.06 0.06 0.06 0.07 0.09 0.09 0.09 0.06 0.06 0.07 0.08 0.07
0.00 0.00 0.00 0.00 0.00 0.00 0.00 0.00 0.00 0.00 0.01 0.01 0.01 0.01 0.01 0.02 0.03 0.02 0.01 0.02 0.02 0.03 0.04 0.05 0.05 0.05 0.04 0.03 0.03 0.03 0.02 0.03 0.02 0.02 0.03 0.04 0.05 0.04 0.03 0.03 0.03 0.03 0.04
0.00 0.00 0.00 0.00 0.00 0.00 0.00 0.00 0.00 0.00 0.01 0.01 0.00 0.00 0.00 0.01 0.01 0.02 0.02 0.01 0.01 0.02 0.01 0.01 0.01 0.00 0.01 0.01 0.01 0.01 0.01 0.02 0.02 0.01 0.01 0.02 0.03 0.04 0.02 0.01 0.01 0.01 0.01
0.00 0.00 0.00 0.00 0.00 0.00 0.00 0.00 0.01 0.01 0.01 0.01 0.00 0.00 0.00 0.01 0.01 0.01 0.01 0.01 0.01 0.00 0.00 0.00 0.00 0.00 0.00 0.00 0.00 0.00 0.00 0.01 0.01 0.01 0.01 0.01 0.01 0.02 0.02 0.01 0.00 0.00 0.00
0.00 0.00 0.00 0.00 0.00 0.00 0.00 0.00 0.01 0.01 0.02 0.01 0.01 0.01 0.01 0.01 0.01 0.01 0.01 0.00 0.00 0.00 0.00 0.00 0.00 0.00 0.00 0.00 0.00 0.00 0.00 0.00 0.01 0.01 0.01 0.01 0.01 0.01 0.00 0.00 0.00 0.00 0.00
0.00 0.00 0.00 0.00 0.00 0.00 0.00 0.00 0.00 0.01 0.02 0.02 0.02 0.01 0.01 0.01 0.01 0.01 0.01 0.00 0.00 0.00 0.00 0.00 0.00 0.00 0.00 0.00 0.00 0.00 0.00 0.00 0.01 0.01 0.01 0.02 0.01 0.00 0.00 0.00 0.00 0.00 0.00
0.00 0.00 0.00 0.00 0.00 0.00 0.00 0.00 0.00 0.01 0.02 0.02 0.02 0.02 0.01 0.01 0.01 0.01 0.01 0.00 0.00 0.00 0.00 0.00 0.00 0.00 0.00 0.00 0.00 0.00 0.00 0.00 0.00 0.00 0.01 0.01 0.00 0.00 0.00 0.00 0.00 0.00 0.00
0.00 0.00 0.00 0.00 0.00 0.00 0.00 0.00 0.00 0.01 0.02 0.02 0.01 0.01 0.01 0.01 0.00 0.00 0.00 0.00 0.00 0.00 0.00 0.00 0.00 0.00 0.00 0.00 0.00 0.00 0.00 0.00 0.00 0.00 0.00 0.01 0.01 0.00 0.00 0.00 0.00 0.00 0.00